Погода Кочубей

Погода Кочубей : погода сейчас, прогноз погоды и архив. Всё, что Вы хотите узнать о погоде Кочубей!

Поиск расширенной информации на нашем сайте:

Другие новости

Новости СМИ2

Главная страница сайта

Новости сайта

02.10.2013

Напоминаем, что на нашем новом сайте вы можете получить высокодетализированные прогнозы погоды по пунктам России, СНГ и мира (включающие важные для авиации метеовеличины, такие как направление и скорость ветра, видимость, явления погоды, количество и форма облачности, нижняя и верхняя граница облачности), а также ознакомиться с разнообразными материалами по авиационной метеорологии и подборкой полезных ссылок на эту тему.

Сайт Метеоцентр.Азия посвящён разработке технологий оптимизации авиаметеорологического обслуживания, включая проектирование и перспективное создание нескольких автоматизированных авиаметеорологических систем:
- система выпуска высокодетальных прогностических карт явлений погоды для нижнего воздушного пространства по России и ближнему зарубежью;
- система верификации прогнозов TAF (выпускаемых синоптиками официальных АМСГ РФ и ближнего зарубежья) и AUTOTAF (выпускаемых сайтом Метеоцентр.Азия) - выявление ошибок, онлайн-сопоставление с фактической погодой METAR, автоматическое внесение коррективов в прогнозы при резком отклонении фактической погоды от прогноза, подсчёт оправдываемости прогнозов по элементам и в целом;
- система обработки, анализа и отображения авиаметеорологической информации для применения провайдерами метеорологической информации.

Рекомендуем: Закупка услуг по изготовлению бланков.

Погода Кочубей - сегодня

Время (UTC), дата Ветер
(°,м/с) 
Видим.   Явления Облачность Т
(°С)
Тd
(°С)
f(%) Тe
(°С)
Pmin
(гПа)
dP
(гПа)
Po
(мм)
O2
(г/м3)
Тmin Tmax R s Состояние
почвы
06 24.02.17 270 (З) 20000 м  {дождь}  8/4 600 м средняя, верхняя 
[Sc|Ac trans|Ci fib]
+8.3 +5.2 81 +7  1015.7  764  298           
09 24.02.17 240 (ЮЗ) 20000 м    8/8 600 м кучево-дожд. 
[Cb calv]
+8.7 +5.3 79 +7  1016.6  764  298           
12 24.02.17 270 (З) 20000 м    8/4 600 м кучево-дожд., верхняя 
[Cb calv|Ci sp]
+11.6 +4.4 61 +11  1015.9  -0.7  764  295           
15 24.02.17 140 (ЮВ) 4000 м    10/10 600 м 
[Sc]
+10.5 +4.6 67 +11  1016.7  0.8  765  296    +11.6  0.8     
18 24.02.17 140 (ЮВ) 4000 м    10/10 600 м 
[Sc]
+9.5 +5.4 76 +9  1017.4  0.7  765  297           
21 24.02.17 150 (ЮВ) 4000 м    10/10 600 м 
[Sc]
+7.4 +4.2 80 +7  1017.2  -0.2  765  299           
00 25.02.17 130 (ЮВ) 4000 м    10/10 600 м 
[Sc]
+4.8 +2.6 86 +3  1016.9  -0.2  765  302           
03 25.02.17 160 (Ю) 4000 м    10/10 600 м 
[Sc]
+6.7 +1.7 70 +5  1016.7  -0.2  765  300  +4.7         
06 25.02.17 140 (ЮВ) 6-10{11}  20000 м    3/0 верхняя 
[Ci fib]
+13.8 +3 48 +13  1016.5  -0.3  764  293           
09 25.02.17 140 (ЮВ) 9-13{14}  20000 м    8/0 верхняя 
[Ci fib]
+20.3 +1.7 29 +20  1015.1  -1.5  763  286           
12 25.02.17 140 (ЮВ) 7-10{14}  20000 м    8/0 верхняя 
[Ci fib]
+19.5 +1.7 30 +20  1013.5  -1.6  762  286           
15 25.02.17 140 (ЮВ) 4000 м    9/5 600 м средняя 
[Sc|Ac As]
+13.3 +3.8 53 +13  1014  0.5  762  292    +21.1       
18 25.02.17 140 (ЮВ) 4000 м    6/0 средняя 
[Ac trans]
+7.3 +3.8 78 +7  1010.3  -2.2  760  298           
21 25.02.17 360 (С) 4000 м    10/0 средняя 
[Ac As]
+3.6 +2.7 94 +4  1008.9  -1.4  759  301           
00 26.02.17 340 (С) 0200 м  туман  н/о 
+2.5 +2.1 97 +2  1010  1.1  760  303           
03 26.02.17 310 (СЗ) 11-16{17}  4000 м  в посл. час туман  10/10 600 м 
[Sc]
+6.6 +4 83 +3  1014.7  4.7  763  300  +1.8         
06 26.02.17 300 (СЗ) 11-15{16}  20000 м  {туман}  10/10 600 м 
[Sc]
+2.8 +0.1 82 -2  1020.8  6.1  768  306           
09 26.02.17 290 (З) 7-11{16}  20000 м    10/8 600 м кучево-дожд., средняя 
[Cb calv|Ac As]
+2.5 -2.7 69 -1  1025.1  4.2  771  308           
12 26.02.17 280 (З) 6{14}  20000 м    8/0 средняя 
[Ac trans]
+4.6 -5.3 49 +2  1025.9  0.9  772  306           
15 26.02.17 260 (З) 3{12}  4000 м    4/4 600 м 
[Sc]
+3.5 -6.3 49 +2  1026.5  0.6  772  308    +6.6       
18 26.02.17 230 (ЮЗ) 4000 м    ясно 
-0.2 -5.1 69 -2  1027.8  1.3  773  312           
21 26.02.17 240 (ЮЗ) 4000 м    ясно 
-2.1 -5.5 77 -4  1027.7  0.1  773  314           
00 27.02.17 240 (ЮЗ) н/о    н/о 
-1 -4.6 77 -2  1027.6  0.1  773  313           
03 27.02.17 240 (ЮЗ) 4000 м    ясно 
-0.9 -4.1 79 1027.5  -0.1  773  313  -2.5         
06 27.02.17 190 (Ю) 20000 м    9/9 600 м 
[Sc]
+1 -5 64 1027.9  0.4  773  311           
Время (UTC), дата Ветер
(°,м/с) 
Видим.   Явления Облачность Т
(°С)
Тd
(°С)
f(%) Тe
(°С)
Pmin
(гПа)
dP
(гПа)
Po
(мм)
O2
(г/м3)
Тmin Tmax R s Состояние
почвы

Для получения пояснительной информации подведите курсор к названию столбца.

ПОГОДА Кочубей - архив

Всё, что Вы хотите узнать о погоде Кочубей - удобно и подробно!

Выберите нужную дату (начиная с 1 января 2015* года) и нажмите кнопку "Найти".
Будут отображены архивные сводки погоды по пункту Кочубей, начиная с указанной даты.


Отображать данные в формате CSV (для использования в таблицах Excel)


Внимание! Наш архив погоды предназначен исключительно для личного некоммерческого использования в познавательных целях. Если Вам необходимы официальные справки о состоянии погоды (для производственных, юридических, коммерческих и т.п. целей), обращайтесь в органы Росгидромета.

*Примечание: данная дата относится к архиву по метеостанциям СССР (Россия, СНГ, Балтия).
Архив по метеостанциям Зарубежной Европы и Азии (кроме Китая) хранится 10 дней, по другим регионам земного шара (Китай, Африка, Америка, Австралия, Океания) - 1 день.

Кочубей - район местоположения метеостанции


Название, широта, долгота, высота метеостанции:
Кочубей 44.4°ш. 46.6°д. -21 м над ур. моря [Российская Федерация]

Дополнительная информация

В oтличие oт бoльшинства пoгoдных сайтoв мы публикуем пoдрoбную метеoинфoрмацию в детальнoм прoфессиoнальнoм фoрмате.

Характеристики температуры и влажнoсти вoздуха измеряются на высoте 2 м в тени вдали oт зданий и деревьев.
Скoрoсть ветра измеряется на высoте 10 м (на урoвне рoста челoвека скoрoсть ветра ниже в 1.5-2 раза). Если метеoстанция нахoдится в гoрoде или в лесу, тo скoрoсть ветра занижена на 2-4 м/с пo сравнению с oткрытым местoм. Скoрoсть ветра над акватoриями крупных рек и oзёр, а также на вершинах хoлмoв на 2-5 м/с выше, чем в oбычных услoвиях.
Атмoсфернoе давление в разных тoчках местнoсти мoжет значительнo oтличаться oт давления на метеoстанции, в зависимoсти oт услoвий рельефа (при пoдъёме на 10 м давление пoнижается примернo на 1 мм рт.ст.).